Meteo pe oră la Dahegam

Astăzi, 12 Aprilie, Luni

Timp Temperatura Precipitaţii Vânt Presiune Umiditate
00:00 +31°C° 0 mm 3 m/s 751 mmHg 14%
01:00 +30°C° 0 mm 3 m/s 751 mmHg 18%
02:00 +29°C° 0 mm 3 m/s 750 mmHg 22%
03:00 +29°C° 0 mm 3 m/s 751 mmHg 25%
04:00 +28°C° 0 mm 3 m/s 751 mmHg 27%
05:00 +28°C° 0 mm 4 m/s 751 mmHg 30%
06:00 +29°C° 0 mm 4 m/s 751 mmHg 30%
07:00 +32°C° 0 mm 4 m/s 752 mmHg 30%
08:00 +34°C° 0 mm 4 m/s 753 mmHg 30%
09:00 +37°C° 0 mm 4 m/s 752 mmHg 23%
10:00 +41°C° 0 mm 4 m/s 752 mmHg 16%
11:00 +43°C° 0 mm 4 m/s 752 mmHg 10%
12:00 +44°C° 0 mm 4 m/s 751 mmHg 9%
13:00 +45°C° 0 mm 4 m/s 750 mmHg 8%
14:00 +47°C° 0 mm 4 m/s 750 mmHg 7%
15:00 +46°C° 0 mm 5 m/s 749 mmHg 7%
16:00 +46°C° 0 mm 5 m/s 749 mmHg 8%
17:00 +45°C° 0 mm 6 m/s 749 mmHg 8%
18:00 +41°C° 0 mm 5 m/s 749 mmHg 9%
19:00 +39°C° 0 mm 5 m/s 750 mmHg 11%
20:00 +36°C° 0 mm 4 m/s 750 mmHg 12%
21:00 +35°C° 0 mm 4 m/s 750 mmHg 12%
22:00 +34°C° 0 mm 4 m/s 751 mmHg 12%
23:00 +33°C° 0 mm 4 m/s 751 mmHg 13%

Mâine, 13 Aprilie, Marţi

Timp Temperatura Precipitaţii Vânt Presiune Umiditate
00:00 +32°C° 0 mm 4 m/s 751 mmHg 15%
01:00 +30°C° 0 mm 4 m/s 750 mmHg 18%
02:00 +30°C° 0 mm 4 m/s 750 mmHg 20%
03:00 +29°C° 0 mm 4 m/s 750 mmHg 23%
04:00 +29°C° 0 mm 4 m/s 750 mmHg 25%
05:00 +28°C° 0 mm 4 m/s 750 mmHg 28%
06:00 +29°C° 0 mm 4 m/s 751 mmHg 29%
07:00 +32°C° 0 mm 5 m/s 752 mmHg 30%
08:00 +34°C° 0 mm 5 m/s 752 mmHg 31%
09:00 +36°C° 0 mm 5 m/s 752 mmHg 25%
10:00 +40°C° 0 mm 5 m/s 752 mmHg 18%
11:00 +43°C° 0 mm 5 m/s 752 mmHg 12%
12:00 +45°C° 0 mm 5 m/s 751 mmHg 11%
13:00 +45°C° 0 mm 4 m/s 750 mmHg 9%
14:00 +45°C° 0 mm 4 m/s 749 mmHg 8%
15:00 +46°C° 0 mm 5 m/s 749 mmHg 8%
16:00 +46°C° 0 mm 6 m/s 748 mmHg 9%
17:00 +45°C° 0 mm 7 m/s 748 mmHg 9%
18:00 +42°C° 0 mm 6 m/s 749 mmHg 11%
19:00 +40°C° 0 mm 5 m/s 749 mmHg 13%
20:00 +36°C° 0 mm 5 m/s 750 mmHg 15%
21:00 +35°C° 0 mm 5 m/s 750 mmHg 18%
22:00 +34°C° 0 mm 4 m/s 750 mmHg 20%
23:00 +32°C° 0 mm 4 m/s 751 mmHg 23%

Poimâine, 14 Aprilie, Miercuri

Timp Temperatura Precipitaţii Vânt Presiune Umiditate
00:00 +32°C° 0 mm 4 m/s 750 mmHg 25%
01:00 +32°C° 0 mm 4 m/s 750 mmHg 27%
02:00 +30°C° 0 mm 4 m/s 750 mmHg 29%
03:00 +30°C° 0 mm 4 m/s 750 mmHg 28%
04:00 +32°C° 0 mm 5 m/s 749 mmHg 27%
05:00 +32°C° 0 mm 6 m/s 749 mmHg 26%
06:00 +33°C° 0 mm 5 m/s 750 mmHg 26%
07:00 +33°C° 0 mm 4 m/s 751 mmHg 27%
08:00 +34°C° 0 mm 4 m/s 752 mmHg 27%
09:00 +36°C° 0 mm 4 m/s 751 mmHg 23%
10:00 +39°C° 0 mm 5 m/s 751 mmHg 19%
11:00 +42°C° 0 mm 5 m/s 751 mmHg 15%
12:00 +42°C° 0 mm 5 m/s 751 mmHg 15%
13:00 +44°C° 0 mm 6 m/s 750 mmHg 14%
14:00 +44°C° 0 mm 6 m/s 750 mmHg 13%
15:00 +42°C° 0.1 mm 6 m/s 750 mmHg 14%
16:00 +41°C° 0.1 mm 6 m/s 749 mmHg 15%
17:00 +40°C° 0.1 mm 6 m/s 749 mmHg 15%
18:00 +37°C° 0.1 mm 5 m/s 750 mmHg 20%
19:00 +35°C° 0.1 mm 4 m/s 750 mmHg 24%
20:00 +33°C° 0.1 mm 3 m/s 751 mmHg 28%
21:00 +33°C° 0 mm 3 m/s 750 mmHg 29%
22:00 +31°C° 0 mm 3 m/s 750 mmHg 29%
23:00 +31°C° 0 mm 3 m/s 750 mmHg 29%

15 Aprilie, Joi

Timp Temperatura Precipitaţii Vânt Presiune Umiditate
00:00 +30°C° 0 mm 4 m/s 750 mmHg 32%
01:00 +30°C° 0 mm 4 m/s 750 mmHg 34%
02:00 +29°C° 0 mm 5 m/s 749 mmHg 37%
03:00 +28°C° 0 mm 4 m/s 750 mmHg 41%
04:00 +27°C° 0 mm 3 m/s 750 mmHg 44%
05:00 +27°C° 0 mm 3 m/s 750 mmHg 48%
06:00 +28°C° 0 mm 3 m/s 751 mmHg 45%
07:00 +29°C° 0 mm 4 m/s 752 mmHg 42%
08:00 +30°C° 0 mm 4 m/s 752 mmHg 39%
09:00 +34°C° 0 mm 4 m/s 752 mmHg 32%
10:00 +36°C° 0 mm 4 m/s 752 mmHg 25%
11:00 +40°C° 0 mm 4 m/s 752 mmHg 18%
12:00 +41°C° 0 mm 4 m/s 751 mmHg 16%
13:00 +42°C° 0 mm 5 m/s 750 mmHg 14%
14:00 +44°C° 0 mm 6 m/s 749 mmHg 12%
15:00 +44°C° 0 mm 6 m/s 748 mmHg 11%
16:00 +43°C° 0 mm 5 m/s 748 mmHg 10%
17:00 +43°C° 0 mm 5 m/s 748 mmHg 9%
18:00 +40°C° 0 mm 5 m/s 748 mmHg 12%
19:00 +36°C° 0 mm 4 m/s 749 mmHg 16%
20:00 +33°C° 0 mm 3 m/s 749 mmHg 19%
21:00 +33°C° 0 mm 3 m/s 749 mmHg 24%
22:00 +31°C° 0 mm 3 m/s 749 mmHg 29%
23:00 +30°C° 0 mm 3 m/s 750 mmHg 33%

16 Aprilie, Vineri

Timp Temperatura Precipitaţii Vânt Presiune Umiditate
00:00 +30°C° 0 mm 3 m/s 749 mmHg 41%
01:00 +29°C° 0 mm 3 m/s 749 mmHg 49%
02:00 +28°C° 0 mm 4 m/s 749 mmHg 57%
03:00 +28°C° 0 mm 4 m/s 749 mmHg 62%
04:00 +28°C° 0 mm 4 m/s 749 mmHg 66%
05:00 +27°C° 0 mm 4 m/s 749 mmHg 71%
06:00 +28°C° 0 mm 3 m/s 750 mmHg 64%
07:00 +30°C° 0 mm 3 m/s 750 mmHg 57%
08:00 +31°C° 0 mm 3 m/s 751 mmHg 50%
09:00 +34°C° 0 mm 3 m/s 751 mmHg 40%
10:00 +37°C° 0 mm 4 m/s 750 mmHg 31%
11:00 +40°C° 0 mm 4 m/s 750 mmHg 22%
12:00 +42°C° 0 mm 4 m/s 749 mmHg 18%
13:00 +43°C° 0 mm 5 m/s 749 mmHg 15%
14:00 +45°C° 0 mm 5 m/s 748 mmHg 11%
15:00 +45°C° 0 mm 5 m/s 747 mmHg 12%
16:00 +45°C° 0 mm 5 m/s 747 mmHg 12%
17:00 +44°C° 0 mm 6 m/s 747 mmHg 12%
18:00 +41°C° 0 mm 5 m/s 747 mmHg 17%
19:00 +37°C° 0 mm 5 m/s 748 mmHg 22%
20:00 +35°C° 0 mm 5 m/s 748 mmHg 26%
21:00 +34°C° 0 mm 4 m/s 748 mmHg 34%
22:00 +33°C° 0 mm 4 m/s 749 mmHg 41%
23:00 +32°C° 0 mm 4 m/s 749 mmHg 48%

17 Aprilie, Sâmbătă

Timp Temperatura Precipitaţii Vânt Presiune Umiditate
00:00 +30°C° 0 mm 4 m/s 749 mmHg 55%
01:00 +29°C° 0 mm 4 m/s 749 mmHg 61%
02:00 +29°C° 0 mm 3 m/s 749 mmHg 68%
03:00 +28°C° 0 mm 3 m/s 749 mmHg 72%
04:00 +28°C° 0 mm 3 m/s 749 mmHg 75%
05:00 +27°C° 0 mm 3 m/s 749 mmHg 79%
06:00 +28°C° 0 mm 3 m/s 750 mmHg 72%
07:00 +30°C° 0 mm 3 m/s 750 mmHg 64%
08:00 +31°C° 0 mm 3 m/s 751 mmHg 57%
09:00 +34°C° 0 mm 3 m/s 751 mmHg 47%
10:00 +37°C° 0 mm 3 m/s 751 mmHg 37%
11:00 +39°C° 0 mm 3 m/s 751 mmHg 26%
12:00 +41°C° 0 mm 4 m/s 750 mmHg 22%
13:00 +43°C° 0 mm 4 m/s 749 mmHg 18%
14:00 +45°C° 0 mm 5 m/s 748 mmHg 14%
15:00 +45°C° 0 mm 5 m/s 748 mmHg 13%
16:00 +43°C° 0 mm 5 m/s 748 mmHg 12%
17:00 +44°C° 0 mm 6 m/s 748 mmHg 11%
18:00 +41°C° 0 mm 5 m/s 748 mmHg 14%
19:00 +38°C° 0 mm 4 m/s 749 mmHg 17%
20:00 +36°C° 0 mm 3 m/s 749 mmHg 20%
21:00 +34°C° 0 mm 3 m/s 750 mmHg 28%
22:00 +33°C° 0 mm 3 m/s 750 mmHg 35%
23:00 +31°C° 0 mm 3 m/s 751 mmHg 43%
Arată mai mult

Formular de consimțământ

Meteoprog și furnizorii noștri de servicii pot stoca și accesa date personale, precum cookies, identificatori de dispozitiv sau alte tehnologii similare pe dispozitivul dumneavoastră și procesa astfel de date pentru a personaliza conținutul și reclamele, dar și pentru a oferi caracteristici de social media și pentru a analiza traficul.

  • Stocarea și/sau accesarea informațiilor pe dispozitivul dumneavoastră

    Cookies, identificatori de dispozitiv sau alte informații pot fi stocate sau accesate pe dispozitiv în scopurile indicate mai sus.

  • Reclame și conținut personalizat, evaluarea reclamelor și a conținutului, informații despre audiențe și dezvoltarea produselor

    Reclamele și conținutul pot fi personalizate pe baza unui profil. Pot fi adăugate date suplimentare pentru a personaliza mai bine reclamele și conținutul. Performanța reclamelor și conținutului poate fi măsurată. Pot fi obținute informații despre utilizatorii care au văzut reclamele și conținutul. Aceste date pot fi utilizate pentru a dezvolta sau îmbunătăți experiența utilizatorilor, sistemele și software-ul.

Dând clic pe ‘Sunt de acord’, permiteți utilizarea cookie-urilor menționate, a identificatorilor de dispozitiv, balizelor web sau altor tehnologii similare. Setările pot fi modificate din browser-ul dispozitivului dumneavoastră.

În anumite scopuri, interesele legitime pot prima asupra consimțământului. Puteți citi mai multe informații în acest sens în Politica privind Confidențialitatea Datelor și Cookie.